Terminal Aerodrome Forecast
Issued by NWS Buffalo, NY

Home | Current Version | Previous Version | Text Only | Print | Product List | Glossary On
Versions: 1 2 3 4 5 6 7 8 9 10 11 12 13 14 15 16 17 18 19 20 21 22 23 24 25 26
674
FTUS41 KBUF 271727
TAFROC
TAF
KROC 271727Z 2718/2818 28004KT P6SM SCT045
     FM272300 25006KT P6SM BKN250
     FM281400 VRB03KT P6SM BKN250
     FM281600 31004KT P6SM BKN250=

USA.gov is the U.S. government's official web portal to all federal, state and local government web resources and services.